Dalhart, TX

7:36 AM CDT on May 27, 2017 (GMT -0500)
Dalhart Municipal

Weather History for KDHT - July, 2013

Change the Weather History Date:

Saturday, July 6, 2013

  Actual Average Record
Temperature  
Mean Temperature 86 °F 77 °F  
Max Temperature 97 °F 92 °F 106 °F (2016)
Min Temperature 74 °F 62 °F 50 °F (1958)
Degree Days  
Heating Degree Days 0 0  
Month to date heating degree days 0 0  
Since 1 June heating degree days 0 12  
Since 1 July heating degree days 0 0  
Cooling Degree Days 21 12  
Month to date cooling degree days 62 68  
Year to date cooling degree days 623 380  
Since 1 June cooling degree days 469 308  
Growing Degree Days 35 (Base 50)    
Moisture  
Dew Point 49 °F    
Average Humidity 33    
Maximum Humidity 46    
Minimum Humidity 20    
Precipitation  
Precipitation 0.00 in 0.08 in 1.96 in (1988)
Month to date precipitation T 0.48  
Year to date precipitation 1.93 8.19  
Snow  
Snow 0.00 in 0.00 in 0.00 in ()
Month to date snowfall 0.0 0.0  
Since 1 June snowfall 0.0 0.0  
Since 1 July snowfall 0.0 0.0  
Snow Depth 0.00 in    
Sea Level Pressure  
Sea Level Pressure 29.72 in    
Wind  
Wind Speed 19 mph (South)    
Max Wind Speed 31 mph    
Max Gust Speed 37 mph    
Visibility 10 miles    
Events      
T = Trace of Precipitation, MM = Missing Value Source: NWS Daily Summary

Daily Weather History Graph

Daily Weather History Graph

Search for Another Location

Airport or City:

Trip Planner

Search our weather history database for the weather conditions in past years. The results will help you decide how hot, cold, wet, or windy it might be!

Date:

Astronomy

Jul. 06, 2013 Rise Set
Actual Time 6:39 AM CDT 9:10 PM CDT
Civil Twilight 6:09 AM CDT 9:40 PM CDT
Nautical Twilight 5:32 AM CDT 10:17 PM CDT
Astronomical Twilight 4:51 AM CDT 10:57 PM CDT
Moon 5:25 AM CDT (7/6) 7:55 PM CDT (7/6)
Length of Visible Light 15h 30m
Length of Day
14h 30m
Waning Crescent, 2% of the Moon is Illuminated
Jul 6
Waning Crescent
Jul 8
New
Jul 15
First Quarter
Jul 22
Full
Jul 29
Last Quarter

Hourly Weather History & Observations

Time (CDT) Temp. Dew Point Humidity Pressure Visibility Wind Dir Wind Speed Gust Speed Precip Events Conditions
12:53 AM 80.1 °F 50.0 °F 35% 29.74 in 10.0 mi SSW 13.8 mph - N/A   Scattered Clouds
1:53 AM 79.0 °F 50.0 °F 36% 29.74 in 10.0 mi South 13.8 mph - N/A   Scattered Clouds
2:53 AM 78.1 °F 50.0 °F 37% 29.72 in 10.0 mi South 18.4 mph - N/A   Clear
3:53 AM 75.9 °F 51.1 °F 42% 29.71 in 10.0 mi South 17.3 mph - N/A   Clear
4:53 AM 75.0 °F 51.1 °F 43% 29.70 in 10.0 mi South 13.8 mph - N/A   Clear
5:53 AM 73.9 °F 51.1 °F 45% 29.70 in 10.0 mi SSW 15.0 mph - N/A   Clear
6:53 AM 75.0 °F 52.0 °F 44% 29.70 in 10.0 mi SSW 18.4 mph - N/A   Clear
7:53 AM 75.0 °F 52.0 °F 44% 29.73 in 10.0 mi South 16.1 mph - N/A   Clear
8:53 AM 79.0 °F 51.1 °F 38% 29.74 in 10.0 mi SSW 18.4 mph - N/A   Clear
9:53 AM 84.0 °F 50.0 °F 31% 29.73 in 10.0 mi SSW 24.2 mph 29.9 mph N/A   Clear
10:53 AM 87.1 °F 51.1 °F 29% 29.74 in 10.0 mi SSW 29.9 mph 36.8 mph N/A   Clear
11:53 AM 87.1 °F 52.0 °F 30% 29.75 in 10.0 mi SSW 19.6 mph 29.9 mph N/A   Clear
12:53 PM 90.0 °F 51.1 °F 26% 29.74 in 10.0 mi South 15.0 mph 28.8 mph N/A   Clear
1:53 PM 95.0 °F 51.1 °F 22% 29.71 in 10.0 mi SSW 17.3 mph 35.7 mph N/A   Clear
2:53 PM 95.0 °F 50.0 °F 22% 29.70 in 10.0 mi SSW 20.7 mph 34.5 mph N/A   Clear
3:53 PM 97.0 °F 48.9 °F 19% 29.69 in 10.0 mi SSW 21.9 mph 29.9 mph N/A   Clear
4:53 PM 96.1 °F 48.9 °F 20% 29.68 in 10.0 mi SSW 21.9 mph 35.7 mph N/A   Clear
5:53 PM 95.0 °F 48.9 °F 21% 29.68 in 10.0 mi South 20.7 mph 32.2 mph N/A   Clear
6:53 PM 93.9 °F 50.0 °F 22% 29.68 in 10.0 mi South 19.6 mph 28.8 mph N/A   Clear
7:53 PM 91.9 °F 46.9 °F 21% 29.69 in 10.0 mi South 20.7 mph 27.6 mph N/A   Clear
8:53 PM 89.1 °F 45.0 °F 22% 29.71 in 10.0 mi South 17.3 mph 25.3 mph N/A   Clear
9:53 PM 86.0 °F 45.0 °F 24% 29.74 in 10.0 mi South 20.7 mph - N/A   Clear
10:53 PM 84.0 °F 45.0 °F 25% 29.77 in 10.0 mi South 19.6 mph - N/A   Clear
11:53 PM 81.0 °F 45.0 °F 28% 29.79 in 10.0 mi South 12.7 mph - N/A   Clear